When you browse on this site, cookies collect data to enhance your experience and personalize the content and advertising you see.
Visit our Privacy Policy to learn more. By continuing to use the site, you agree to this use of cookies and data.
  • In United Kingdom
  • List of Countries
  • For 7 days
  • Water Temperature
  • Weather Map
  • Weather Widgets
  • user-avatar
    Login

    Hourly Weather Abony

    Today, 24 September, Tuesday

    Time Temperature Precipitation Wind Pressure Humidity
    00:00 +14°C° 0 mm 3 mps 752 mmHg 63%
    01:00 +14°C° 0 mm 3 mps 751 mmHg 63%
    02:00 +14°C° 0 mm 3 mps 751 mmHg 65%
    03:00 +13°C° 0 mm 3 mps 751 mmHg 67%
    04:00 +13°C° 0 mm 3 mps 750 mmHg 69%
    05:00 +14°C° 0 mm 3 mps 750 mmHg 68%
    06:00 +14°C° 0 mm 3 mps 751 mmHg 66%
    07:00 +16°C° 0 mm 3 mps 751 mmHg 65%
    08:00 +18°C° 0 mm 3 mps 751 mmHg 59%
    09:00 +20°C° 0 mm 3 mps 751 mmHg 53%
    10:00 +22°C° 0 mm 3 mps 751 mmHg 46%
    11:00 +24°C° 0 mm 3 mps 751 mmHg 44%
    12:00 +25°C° 0 mm 3 mps 751 mmHg 41%
    13:00 +26°C° 0 mm 2 mps 751 mmHg 39%
    14:00 +25°C° 0 mm 2 mps 751 mmHg 40%
    15:00 +25°C° 0 mm 2 mps 750 mmHg 41%
    16:00 +25°C° 0 mm 2 mps 750 mmHg 42%
    17:00 +22°C° 0 mm 3 mps 750 mmHg 47%
    18:00 +21°C° 0 mm 3 mps 750 mmHg 53%
    19:00 +19°C° 0 mm 4 mps 750 mmHg 58%
    20:00 +19°C° 0 mm 4 mps 750 mmHg 61%
    21:00 +18°C° 0 mm 4 mps 750 mmHg 63%
    22:00 +18°C° 0 mm 4 mps 751 mmHg 65%
    23:00 +17°C° 0.6 mm 3 mps 751 mmHg 73%

    Tomorrow, 25 September, Wednesday

    Time Temperature Precipitation Wind Pressure Humidity
    00:00 +17°C° 0.6 mm 3 mps 751 mmHg 81%
    01:00 +16°C° 0.6 mm 2 mps 751 mmHg 88%
    02:00 +16°C° 0.8 mm 2 mps 750 mmHg 90%
    03:00 +16°C° 0.8 mm 2 mps 750 mmHg 91%
    04:00 +16°C° 0.8 mm 2 mps 750 mmHg 93%
    05:00 +16°C° 0.1 mm 2 mps 750 mmHg 91%
    06:00 +16°C° 0.1 mm 2 mps 750 mmHg 90%
    07:00 +16°C° 0.1 mm 3 mps 750 mmHg 89%
    08:00 +17°C° 0 mm 3 mps 750 mmHg 83%
    09:00 +18°C° 0 mm 2 mps 751 mmHg 78%
    10:00 +19°C° 0 mm 2 mps 751 mmHg 72%
    11:00 +20°C° 0 mm 2 mps 751 mmHg 68%
    12:00 +20°C° 0 mm 2 mps 750 mmHg 64%
    13:00 +21°C° 0 mm 2 mps 750 mmHg 60%
    14:00 +21°C° 0.1 mm 2 mps 750 mmHg 60%
    15:00 +21°C° 0.1 mm 2 mps 749 mmHg 60%
    16:00 +21°C° 0.1 mm 2 mps 749 mmHg 60%
    17:00 +20°C° 0.2 mm 2 mps 749 mmHg 65%
    18:00 +19°C° 0.2 mm 2 mps 749 mmHg 69%
    19:00 +18°C° 0.2 mm 2 mps 750 mmHg 74%
    20:00 +18°C° 0.2 mm 2 mps 750 mmHg 75%
    21:00 +18°C° 0.2 mm 2 mps 750 mmHg 77%
    22:00 +17°C° 0.2 mm 2 mps 750 mmHg 78%
    23:00 +17°C° 0.1 mm 2 mps 750 mmHg 79%

    Day after tomorrow, 26 September, Thursday

    Time Temperature Precipitation Wind Pressure Humidity
    00:00 +17°C° 0.1 mm 2 mps 750 mmHg 80%
    01:00 +17°C° 0.1 mm 2 mps 750 mmHg 80%
    02:00 +17°C° 0.1 mm 2 mps 750 mmHg 82%
    03:00 +16°C° 0.1 mm 3 mps 750 mmHg 83%
    04:00 +16°C° 0.1 mm 3 mps 750 mmHg 84%
    05:00 +16°C° 0.4 mm 3 mps 750 mmHg 86%
    06:00 +16°C° 0.4 mm 3 mps 751 mmHg 87%
    07:00 +14°C° 0.4 mm 3 mps 751 mmHg 88%
    08:00 +14°C° 1.4 mm 3 mps 751 mmHg 89%
    09:00 +14°C° 1.4 mm 3 mps 752 mmHg 90%
    10:00 +14°C° 1.4 mm 3 mps 752 mmHg 91%
    11:00 +14°C° 1.9 mm 3 mps 752 mmHg 91%
    12:00 +14°C° 1.9 mm 3 mps 752 mmHg 90%
    13:00 +14°C° 1.9 mm 3 mps 752 mmHg 90%
    14:00 +16°C° 0.2 mm 2 mps 752 mmHg 86%
    15:00 +16°C° 0.2 mm 1 mps 752 mmHg 82%
    16:00 +18°C° 0.2 mm 1 mps 752 mmHg 78%
    17:00 +16°C° 0 mm 1 mps 752 mmHg 80%
    18:00 +15°C° 0 mm 2 mps 753 mmHg 83%
    19:00 +15°C° 0 mm 2 mps 753 mmHg 85%
    20:00 +15°C° 0 mm 2 mps 753 mmHg 85%
    21:00 +14°C° 0 mm 2 mps 754 mmHg 84%
    22:00 +14°C° 0 mm 2 mps 754 mmHg 83%
    23:00 +13°C° 0 mm 3 mps 754 mmHg 84%

    27 September, Friday

    Time Temperature Precipitation Wind Pressure Humidity
    00:00 +13°C° 0 mm 3 mps 754 mmHg 84%
    01:00 +13°C° 0 mm 3 mps 754 mmHg 85%
    02:00 +12°C° 0 mm 3 mps 755 mmHg 86%
    03:00 +13°C° 0 mm 2 mps 755 mmHg 88%
    04:00 +13°C° 0 mm 2 mps 755 mmHg 89%
    05:00 +13°C° 0 mm 2 mps 755 mmHg 87%
    06:00 +14°C° 0 mm 2 mps 755 mmHg 86%
    07:00 +14°C° 0 mm 2 mps 755 mmHg 84%
    08:00 +16°C° 0 mm 2 mps 755 mmHg 77%
    09:00 +18°C° 0 mm 2 mps 756 mmHg 70%
    10:00 +20°C° 0 mm 2 mps 756 mmHg 63%
    11:00 +21°C° 0 mm 2 mps 756 mmHg 59%
    12:00 +23°C° 0 mm 2 mps 755 mmHg 55%
    13:00 +24°C° 0 mm 2 mps 755 mmHg 51%
    14:00 +24°C° 0 mm 2 mps 755 mmHg 51%
    15:00 +24°C° 0 mm 2 mps 755 mmHg 52%
    16:00 +24°C° 0 mm 1 mps 755 mmHg 52%
    17:00 +23°C° 0 mm 1 mps 755 mmHg 56%
    18:00 +21°C° 0 mm 1 mps 755 mmHg 60%
    19:00 +20°C° 0 mm 1 mps 755 mmHg 65%
    20:00 +19°C° 0 mm 1 mps 755 mmHg 67%
    21:00 +19°C° 0 mm 1 mps 755 mmHg 69%
    22:00 +18°C° 0 mm 2 mps 755 mmHg 70%
    23:00 +17°C° 0 mm 2 mps 755 mmHg 72%

    28 September, Saturday

    Time Temperature Precipitation Wind Pressure Humidity
    00:00 +17°C° 0 mm 2 mps 755 mmHg 73%
    01:00 +17°C° 0 mm 2 mps 755 mmHg 74%
    02:00 +16°C° 0 mm 2 mps 755 mmHg 75%
    03:00 +16°C° 0 mm 2 mps 755 mmHg 75%
    04:00 +16°C° 0 mm 2 mps 755 mmHg 76%
    05:00 +16°C° 0 mm 2 mps 755 mmHg 75%
    06:00 +17°C° 0 mm 2 mps 755 mmHg 74%
    07:00 +17°C° 0 mm 2 mps 755 mmHg 73%
    08:00 +19°C° 0 mm 2 mps 756 mmHg 66%
    09:00 +20°C° 0 mm 2 mps 756 mmHg 60%
    10:00 +23°C° 0 mm 2 mps 756 mmHg 53%
    11:00 +24°C° 0 mm 2 mps 756 mmHg 50%
    12:00 +25°C° 0 mm 2 mps 755 mmHg 47%
    13:00 +26°C° 0 mm 2 mps 755 mmHg 43%
    14:00 +26°C° 0 mm 2 mps 755 mmHg 44%
    15:00 +26°C° 0 mm 1 mps 754 mmHg 46%
    16:00 +26°C° 0 mm 1 mps 754 mmHg 47%
    17:00 +24°C° 0 mm 1 mps 754 mmHg 51%
    18:00 +22°C° 0 mm 1 mps 754 mmHg 56%
    19:00 +21°C° 0 mm 1 mps 754 mmHg 60%
    20:00 +20°C° 0 mm 1 mps 754 mmHg 61%
    21:00 +20°C° 0 mm 1 mps 755 mmHg 61%
    22:00 +20°C° 0 mm 1 mps 755 mmHg 62%
    23:00 +20°C° 0 mm 1 mps 755 mmHg 63%

    29 September, Sunday

    Time Temperature Precipitation Wind Pressure Humidity
    00:00 +18°C° 0 mm 2 mps 754 mmHg 63%
    01:00 +18°C° 0 mm 2 mps 754 mmHg 63%
    02:00 +17°C° 0 mm 2 mps 754 mmHg 65%
    03:00 +17°C° 0 mm 2 mps 754 mmHg 67%
    04:00 +16°C° 0 mm 2 mps 754 mmHg 69%
    05:00 +16°C° 0 mm 2 mps 754 mmHg 69%
    06:00 +16°C° 0 mm 2 mps 754 mmHg 69%
    07:00 +17°C° 0 mm 2 mps 755 mmHg 68%
    08:00 +19°C° 0 mm 2 mps 755 mmHg 61%
    09:00 +20°C° 0 mm 2 mps 755 mmHg 54%
    10:00 +23°C° 0 mm 1 mps 755 mmHg 46%
    11:00 +24°C° 0 mm 1 mps 754 mmHg 45%
    12:00 +25°C° 0 mm 1 mps 754 mmHg 43%
    13:00 +26°C° 0 mm 1 mps 754 mmHg 41%
    14:00 +26°C° 0 mm 2 mps 753 mmHg 42%
    15:00 +25°C° 0 mm 2 mps 752 mmHg 42%
    16:00 +25°C° 0 mm 2 mps 752 mmHg 43%
    17:00 +24°C° 0 mm 2 mps 752 mmHg 48%
    18:00 +22°C° 0 mm 1 mps 752 mmHg 53%
    19:00 +21°C° 0 mm 1 mps 752 mmHg 57%
    20:00 +21°C° 0 mm 1 mps 752 mmHg 59%
    21:00 +19°C° 0 mm 2 mps 752 mmHg 61%
    22:00 +19°C° 0 mm 2 mps 752 mmHg 62%
    23:00 +18°C° 0 mm 2 mps 752 mmHg 65%
    Show more